Location: Palomar Mountain Lodge
(33.3110°N, 116.8495°W)
Time: 03:37:23
(UTC-07:00)

Daily predictions for brighter satellites

Satellite Brightness Start Highest point End
(mag) Time Altitude Azimuth Time Altitude Azimuth Time Altitude Azimuth
Cosmos 1943 Rocket 4.5 00:08:35 12° ENE 00:08:35 12° ENE 00:09:24 10° ENE
Cosmos 2184 Rocket 4.2 00:12:08 10° N 00:17:36 69° NNW 00:17:36 69° NNW
Cosmos 2154 Rocket 4.5 00:19:02 10° N 00:24:29 54° NE 00:24:29 54° NE
CENTAUR R/B 3.1 00:19:25 10° NNW 00:27:37 77° ENE 00:28:31 71° ESE
ADEOS Rocket 3.2 00:22:00 10° N 00:27:25 69° NNW 00:27:25 69° NNW
USA 234 3.3 00:30:04 10° NE 00:36:01 75° NNE 00:36:01 75° NNE
Cosmos 2369 Rocket 3.0 01:04:12 48° NNE 01:04:12 48° NNE 01:08:14 10° NNE
Timation 2 Rocket 4.5 01:07:45 10° NNW 01:14:24 59° ENE 01:14:37 58° ENE
Cosmos 2082 Rocket 4.3 01:19:42 10° NW 01:21:21 16° WNW 01:21:21 16° WNW
Lacrosse 4 Rocket 4.0 01:33:53 16° ENE 01:33:53 16° ENE 01:35:08 10° NE
Cosmos 1943 Rocket 2.9 01:50:06 45° NW 01:50:06 45° NW 01:54:34 10° N
SL-08 R/B 4.5 01:47:09 10° N 01:52:49 76° NNE 01:52:49 76° NNE
CZ-2D R/B 3.5 01:57:34 10° NE 02:02:00 29° E 02:02:00 29° E
SL-08 R/B 4.5 02:24:33 34° E 02:25:12 36° ENE 02:29:30 10° N
Resurs 1-4 Rocket 2.4 02:25:28 10° NNE 02:30:42 57° E 02:30:46 57° ESE
H-2A R/B 3.4 02:38:13 10° NNE 02:41:03 42° NE 02:41:03 42° NE
Cosmos 1862 4.3 02:43:58 44° NNE 02:43:58 44° NNE 02:46:49 10° NNE
Cosmos 2369 Rocket 4.4 02:45:59 11° WNW 02:47:15 12° NW 02:49:22 10° NNW
CBERS-1 3.9 02:42:31 10° N 02:47:34 77° WNW 02:47:34 77° WNW
ARIANE 5 R/B 3.1 02:43:30 10° NNE 02:48:16 45° E 02:48:54 42° ESE
Cosmos 1763 Rocket 3.3 02:43:59 10° NNW 02:48:54 84° NNW 02:48:54 84° NNW
H-II Stage 2 4.2 02:50:18 40° S 02:50:18 40° S 03:10:29 10° ESE
AQUA 4.0 02:59:32 10° N 03:04:03 55° WNW 03:04:03 55° WNW
SL-16 R/B 2.4 03:02:54 51° S 03:04:34 79° WSW 03:10:45 10° NNW
Cosmos 540 Rocket 4.3 03:00:13 10° N 03:05:08 47° ENE 03:08:35 19° SE
UNKNOWN OBJECT B 4.3 03:03:41 10° NE 03:07:15 30° E 03:07:57 28° ESE
Cosmos 1814 Rocket 3.9 03:02:59 10° NNW 03:08:13 65° WSW 03:08:19 65° WSW
UNK 3.7 03:08:36 68° W 03:08:36 68° W 03:13:03 10° NNW
Cosmos 1184 Rocket 4.2 03:06:02 10° N 03:08:34 38° NE 03:08:34 38° NE
Lacrosse 4 Rocket 3.1 03:10:12 23° NW 03:10:12 23° NW 03:13:40 10° N
Cosmos 1535 Rocket 4.4 03:06:55 10° N 03:12:59 70° W 03:14:36 49° SSW
Cosmos 1605 Rocket 4.1 03:10:42 10° N 03:16:47 71° E 03:20:22 26° SSE
ADEOS 4.3 03:13:17 10° NNE 03:18:17 45° E 03:20:35 28° SSE
COSMOS 2455 3.0 03:12:38 10° NNW 03:18:40 73° ENE 03:24:37 10° SSE
Cosmos 841 Rocket 3.4 03:14:23 10° NNW 03:19:33 68° WSW 03:20:20 58° SSW
Cosmos 1339 Rocket 4.5 03:18:57 39° S 03:21:28 86° E 03:27:50 10° N
Meteor 2-17 Rocket 4.5 03:15:57 10° NNW 03:21:59 61° W 03:23:40 45° SSW
IRS-1C 4.5 03:17:25 10° N 03:22:31 48° WNW 03:23:27 44° WSW
Cosmos 44 Rocket 3.3 03:23:03 56° S 03:23:58 72° ESE 03:28:54 10° NNE
Spot 4 Rocket 4.0 03:20:48 10° N 03:25:55 72° WNW 03:27:08 51° SW
ATLAS CENTAUR R/B 1.3 03:26:17 62° ESE 03:26:20 62° ESE 03:30:10 10° NE
Milstar 3 Cent rocket 4.1 03:11:57 16° WSW 03:28:33 67° S 03:37:26 10° E
Cosmos 1818 3.8 03:23:31 10° NW 03:28:39 44° WSW 03:28:39 44° WSW
Delta 2 Rocket 3.8 03:28:39 35° WNW 03:30:21 64° N 03:35:10 10° E
Cosmos 1437 Rocket 3.7 03:32:16 35° WNW 03:32:16 35° WNW 03:35:46 10° N
Cosmos 1934 Rocket 4.1 03:26:12 10° NNW 03:32:20 54° W 03:34:23 38° SW
Cosmos 44 3.5 03:32:24 45° W 03:33:13 51° WNW 03:37:58 10° NNE
IRS-1D 4.1 03:32:06 10° N 03:36:49 39° WNW 03:37:49 35° W
CZ-2D R/B 3.4 03:33:38 10° NNE 03:37:51 82° ESE 03:38:55 49° S
Meteor 1-4 Rocket 3.3 03:38:33 39° WNW 03:38:33 39° WNW 03:41:40 10° N
ATLAS 2A CENTAUR R/B 3.7 03:34:27 29° SW 03:40:09 46° S 03:46:23 10° ESE
Cosmos 1812 3.3 03:36:34 10° N 03:40:21 53° E 03:42:27 24° SSE
ADEOS II 2.6 03:35:13 10° NNE 03:40:23 56° E 03:43:39 22° S
CZ-2D R/B 3.2 03:37:34 10° NNW 03:42:05 29° WNW 03:43:20 26° W
Cosmos 2221 Rocket 3.7 03:40:22 10° NNW 03:44:41 53° W 03:45:31 45° SW
Cosmos 1697 Rocket 3.8 03:41:34 16° SSE 03:45:32 38° ESE 03:50:44 10° NE
Cosmos 1354 Rocket 4.4 03:44:57 36° WSW 03:46:30 47° WNW 03:51:31 10° N
Cosmos 836 Rocket 4.5 03:41:29 10° NNW 03:46:48 87° ENE 03:52:05 10° SSE
GPS 2-04 Rocket1 2.6 03:49:58 44° WSW 03:51:13 89° S 03:55:15 10° ENE
Helios 1A Rocket 2.9 03:54:37 10° N 03:58:37 63° WNW 04:00:02 37° SW
Cosmos 389 Rocket 2.6 03:59:03 44° SW 03:59:48 55° W 04:03:22 10° N
USA 229 DEB 3.8 03:54:09 10° NNW 04:01:28 87° WSW 04:08:55 10° SSE
USA 229 3.8 03:54:16 10° NNW 04:01:34 88° WSW 04:09:01 10° SSE
SAR-Lupe-2 3.4 04:00:25 34° S 04:01:49 69° WSW 04:05:22 10° NNW
Cosmos 2369 3.6 03:58:56 25° SSW 04:02:18 89° ESE 04:07:57 10° NNE
Genesis I 3.5 03:58:49 10° NNW 04:02:53 70° ENE 04:06:51 10° SE
Cosmos 2219 3.2 03:59:21 10° NNW 04:04:51 56° WSW 04:10:18 10° S
Shenzhou-11 Module 3.2 04:04:49 27° SSE 04:05:09 27° SE 04:07:43 10° E
Cosmos 1727 Rocket 4.4 04:02:50 26° SW 04:05:57 46° W 04:11:56 10° N
Resurs 1-4 Rocket 3.9 04:07:00 10° NNW 04:09:59 15° WNW 04:11:51 13° W
Cosmos 968 Rocket 3.8 04:07:35 26° SW 04:10:17 52° WNW 04:15:25 10° N
Cosmos 1980 Rocket 3.5 04:06:56 10° SSE 04:11:57 35° ESE 04:17:00 10° NE
Cosmos 2173 Rocket 4.1 04:06:05 10° N 04:12:11 74° E 04:18:14 10° S
Gbstr 26 Del rocket 3.7 04:12:59 21° S 04:14:56 36° SE 04:18:34 10° ENE
Meteor 2-12 Rocket 4.4 04:12:25 10° N 04:18:33 89° ENE 04:24:38 10° S
Okean 3 3.4 04:14:32 10° N 04:18:44 88° ENE 04:22:57 10° S
Meteosat 1 Rocket2 4.2 04:17:11 21° SSW 04:18:56 27° S 04:22:18 10° ESE
Cosmos 1378 Rocket 4.0 04:22:05 10° N 04:26:30 65° E 04:30:53 10° SSE
Okean 1 3.6 04:22:38 10° N 04:26:35 67° E 04:30:29 10° SSE
ASTEX 1 3.4 04:21:51 10° S 04:26:46 63° W 04:31:44 10° NNW
ARIANE 5 R/B 4.2 04:23:51 10° NNW 04:26:59 17° WNW 04:29:15 13° W
Cosmos 1271 Rocket 2.8 04:24:42 12° S 04:28:24 80° E 04:32:22 10° N
Cosmos 1633 4.1 04:28:43 18° W 04:29:40 19° WNW 04:32:21 10° NNW
Cosmos 2278 3.9 04:25:37 18° SW 04:29:46 59° WNW 04:35:21 10° NNE
Cosmos 1733 Rocket 4.1 04:28:25 19° WSW 04:30:22 27° WNW 04:34:03 10° NNW
PSLV R/B 4.0 04:28:03 10° NW 04:30:55 46° NNE 04:33:46 10° E
Cosmos 2297 Rocket 2.2 04:25:51 10° NNW 04:31:31 88° ENE 04:37:09 10° SSE
Cosmos 2227 Rocket 2.2 04:34:18 10° NNW 04:39:56 70° WSW 04:45:32 10° S
Cosmos 2016 Rocket 4.1 04:34:17 10° N 04:40:42 88° E 04:47:00 10° S
GEOS 3 Rocket 3.9 04:37:38 10° NE 04:42:53 69° ESE 04:48:00 10° SSW
Cosmos 1674 Rocket 4.0 04:42:01 10° NNW 04:46:01 39° W 04:50:00 10° SSW
Cosmos 1908 Rocket 4.0 04:43:09 11° SSW 04:47:15 46° W 04:51:32 10° N
Cosmos 1802 Rocket 4.0 04:41:34 10° NNW 04:47:43 66° W 04:53:46 10° S
Lacrosse 5 3.9 04:43:26 10° NNW 04:48:01 33° NE 04:52:34 10° ESE
Meteor 1-31 Rocket 4.3 04:46:03 10° NNE 04:49:40 36° E 04:53:17 10° SSE
Cosmos 2061 Rocket 4.1 04:47:13 10° NNW 04:53:19 60° W 04:59:28 10° S
Meteor 1-28 Rocket 4.4 04:54:01 10° SSE 04:57:36 46° ENE 05:01:11 10° N
Lacrosse 5 rocket 2.5 04:55:52 10° SSW 04:59:56 43° ESE 05:04:13 10° NE
SL-8 R/B 3.7 04:55:54 10° WNW 05:00:39 61° SW 05:05:22 10° SE
Iridium 96 4.1 04:59:56 10° NNW 05:02:55 52° W 05:05:32 10° SSW
COSMOS 2455 4.5 05:01:10 10° WNW 05:03:51 13° WSW 05:06:31 10° SW
Cosmos 1975 Rocket 3.2 05:01:21 10° N 05:05:50 85° E 05:10:18 10° S
Cosmos 1725 Rocket 4.1 05:06:55 10° NNW 05:13:11 68° W 05:19:23 10° S
